Time,TemperatureF,DewpointF,PressureIn,WindDirection,WindDirectionDegrees,WindSpeedMPH,WindSpeedGustMPH,Humidity,HourlyPrecipIn,Conditions,Clouds,dailyrainin,SoftwareType,DateUTC
2013-03-24 00:02:00,-4.0,-9.0,-100.00,SSW,193,0.0,0.0,81,-99.99,,,-99.99,,2013-03-24 06:02:00,
2013-03-24 00:12:00,-4.0,-9.0,-100.00,SSW,193,0.0,0.0,81,-99.99,,,-99.99,,2013-03-24 06:12:00,
2013-03-24 00:52:00,-5.0,-9.0,-100.00,SSE,166,2.0,3.0,80,-99.99,,,-99.99,,2013-03-24 06:52:00,
2013-03-24 01:02:00,-5.0,-9.0,-100.00,SSE,166,2.0,3.0,80,-99.99,,,-99.99,,2013-03-24 07:02:00,
2013-03-24 01:12:00,-5.0,-9.0,-100.00,SSE,166,2.0,3.0,80,-99.99,,,-99.99,,2013-03-24 07:12:00,
2013-03-24 01:52:00,-4.0,-8.0,-100.00,SSE,152,2.0,3.0,80,-99.99,,,-99.99,,2013-03-24 07:52:00,
2013-03-24 02:02:00,-4.0,-8.0,-100.00,SSE,152,2.0,3.0,80,-99.99,,,-99.99,,2013-03-24 08:02:00,
2013-03-24 02:12:00,-4.0,-8.0,-100.00,SSE,152,2.0,3.0,80,-99.99,,,-99.99,,2013-03-24 08:12:00,
2013-03-24 02:52:00,-8.0,-13.0,-100.00,ESE,119,2.0,2.0,79,-99.99,,,-99.99,,2013-03-24 08:52:00,
2013-03-24 03:02:00,-8.0,-13.0,-100.00,ESE,119,2.0,2.0,79,-99.99,,,-99.99,,2013-03-24 09:02:00,
2013-03-24 03:12:00,-8.0,-13.0,-100.00,ESE,119,2.0,2.0,79,-99.99,,,-99.99,,2013-03-24 09:12:00,
2013-03-24 03:52:00,-12.0,-17.0,-100.00,SSE,155,1.0,1.0,78,-99.99,,,-99.99,,2013-03-24 09:52:00,
2013-03-24 04:02:00,-12.0,-17.0,-100.00,SSE,155,1.0,1.0,78,-99.99,,,-99.99,,2013-03-24 10:02:00,
2013-03-24 04:12:00,-12.0,-17.0,-100.00,SSE,155,1.0,1.0,78,-99.99,,,-99.99,,2013-03-24 10:12:00,
2013-03-24 04:52:00,-16.0,-21.0,-100.00,SSE,168,0.0,1.0,77,-99.99,,,-99.99,,2013-03-24 10:52:00,
2013-03-24 05:02:00,-16.0,-21.0,-100.00,SSE,168,0.0,1.0,77,-99.99,,,-99.99,,2013-03-24 11:02:00,
2013-03-24 05:52:00,-18.0,-23.0,-100.00,ESE,109,1.0,2.0,76,-99.99,,,-99.99,,2013-03-24 11:52:00,
2013-03-24 06:02:00,-18.0,-23.0,-100.00,ESE,109,1.0,2.0,76,-99.99,,,-99.99,,2013-03-24 12:02:00,
2013-03-24 06:52:00,-19.0,-24.0,-100.00,SE,141,1.0,2.0,76,-99.99,,,-99.99,,2013-03-24 12:52:00,
2013-03-24 07:02:00,-19.0,-24.0,-100.00,SE,141,1.0,2.0,76,-99.99,,,-99.99,,2013-03-24 13:02:00,
2013-03-24 07:52:00,-20.0,-25.0,-100.00,SSW,210,0.0,2.0,76,-99.99,,,-99.99,,2013-03-24 13:52:00,
2013-03-24 08:52:00,-12.0,-18.0,-100.00,West,265,0.0,1.0,76,-99.99,,,-99.99,,2013-03-24 14:52:00,
2013-03-24 09:02:00,-12.0,-18.0,-100.00,West,265,0.0,1.0,76,-99.99,,,-99.99,,2013-03-24 15:02:00,
2013-03-24 09:12:00,-12.0,-18.0,-100.00,West,265,0.0,1.0,76,-99.99,,,-99.99,,2013-03-24 15:12:00,
2013-03-24 09:53:00,0.0,-6.0,-100.00,WSW,240,0.0,1.0,73,-99.99,,,-99.99,,2013-03-24 15:53:00,
2013-03-24 10:12:00,0.0,-6.0,-100.00,WSW,240,0.0,1.0,73,-99.99,,,-99.99,,2013-03-24 16:12:00,
2013-03-24 10:52:00,8.0,-2.0,-100.00,SE,135,0.0,1.0,64,-99.99,,,-99.99,,2013-03-24 16:52:00,
2013-03-24 11:02:00,8.0,-2.0,-100.00,SE,135,0.0,1.0,64,-99.99,,,-99.99,,2013-03-24 17:02:00,
2013-03-24 11:12:00,8.0,-2.0,-100.00,SE,135,0.0,1.0,64,-99.99,,,-99.99,,2013-03-24 17:12:00,
2013-03-24 11:53:00,16.0,2.0,-100.00,NNW,328,2.0,6.0,51,-99.99,,,-99.99,,2013-03-24 17:53:00,
2013-03-24 12:02:00,16.0,2.0,-100.00,NNW,328,2.0,6.0,51,-99.99,,,-99.99,,2013-03-24 18:02:00,
2013-03-24 12:12:00,16.0,2.0,-100.00,NNW,328,2.0,6.0,51,-99.99,,,-99.99,,2013-03-24 18:12:00,
2013-03-24 12:52:00,20.0,-3.0,-100.00,NW,322,2.0,4.0,35,-99.99,,,-99.99,,2013-03-24 18:52:00,
2013-03-24 13:02:00,20.0,-3.0,-100.00,NW,322,2.0,4.0,35,-99.99,,,-99.99,,2013-03-24 19:02:00,
2013-03-24 13:12:00,20.0,-3.0,-100.00,NW,322,2.0,4.0,35,-99.99,,,-99.99,,2013-03-24 19:12:00,
2013-03-24 13:53:00,22.0,-1.0,-100.00,NNW,336,5.0,8.0,37,-99.99,,,-99.99,,2013-03-24 19:53:00,
2013-03-24 14:02:00,22.0,-1.0,-100.00,NNW,336,5.0,8.0,37,-99.99,,,-99.99,,2013-03-24 20:02:00,
2013-03-24 14:12:00,22.0,-1.0,-100.00,NNW,336,5.0,8.0,37,-99.99,,,-99.99,,2013-03-24 20:12:00,
2013-03-24 14:53:00,21.0,-5.0,-100.00,NNE,12,5.0,9.0,31,-99.99,,,-99.99,,2013-03-24 20:53:00,
2013-03-24 15:02:00,21.0,-5.0,-100.00,NNE,12,5.0,9.0,31,-99.99,,,-99.99,,2013-03-24 21:02:00,
2013-03-24 15:11:00,21.0,-5.0,-100.00,NNE,12,5.0,9.0,31,-99.99,,,-99.99,,2013-03-24 21:11:00,
2013-03-24 15:53:00,25.0,1.0,-100.00,NW,314,4.0,7.0,35,-99.99,,,-99.99,,2013-03-24 21:53:00,
2013-03-24 16:02:00,25.0,1.0,-100.00,NW,314,4.0,7.0,35,-99.99,,,-99.99,,2013-03-24 22:02:00,
2013-03-24 16:12:00,25.0,1.0,-100.00,NW,314,4.0,7.0,35,-99.99,,,-99.99,,2013-03-24 22:12:00,
2013-03-24 16:52:00,24.0,1.0,-100.00,WNW,285,2.0,4.0,35,-99.99,,,-99.99,,2013-03-24 22:52:00,
2013-03-24 17:02:00,24.0,1.0,-100.00,WNW,285,2.0,4.0,35,-99.99,,,-99.99,,2013-03-24 23:02:00,
2013-03-24 17:12:00,24.0,1.0,-100.00,WNW,285,2.0,4.0,35,-99.99,,,-99.99,,2013-03-24 23:12:00,
2013-03-24 17:52:00,24.0,-1.0,-100.00,NW,306,4.0,8.0,32,-99.99,,,-99.99,,2013-03-24 23:52:00,
2013-03-24 18:02:00,24.0,-1.0,-100.00,NW,306,4.0,8.0,32,-99.99,,,-99.99,,2013-03-25 00:02:00,
2013-03-24 18:12:00,24.0,-1.0,-100.00,NW,306,4.0,8.0,32,-99.99,,,-99.99,,2013-03-25 00:12:00,
2013-03-24 18:52:00,22.0,1.0,-100.00,WNW,290,5.0,10.0,39,-99.99,,,-99.99,,2013-03-25 00:52:00,
2013-03-24 19:02:00,22.0,1.0,-100.00,WNW,290,5.0,10.0,39,-99.99,,,-99.99,,2013-03-25 01:02:00,
2013-03-24 19:12:00,22.0,1.0,-100.00,WNW,290,5.0,10.0,39,-99.99,,,-99.99,,2013-03-25 01:12:00,
2013-03-24 19:52:00,20.0,0.0,-100.00,NW,314,1.0,3.0,42,-99.99,,,-99.99,,2013-03-25 01:52:00,
2013-03-24 20:02:00,20.0,0.0,-100.00,NW,314,1.0,3.0,42,-99.99,,,-99.99,,2013-03-25 02:02:00,
2013-03-24 20:12:00,20.0,0.0,-100.00,NW,314,1.0,3.0,42,-99.99,,,-99.99,,2013-03-25 02:12:00,
2013-03-24 20:52:00,12.0,-1.0,-100.00,SSE,154,3.0,5.0,55,-99.99,,,-99.99,,2013-03-25 02:52:00,
2013-03-24 21:02:00,12.0,-1.0,-100.00,SSE,154,3.0,5.0,55,-99.99,,,-99.99,,2013-03-25 03:02:00,
2013-03-24 21:12:00,12.0,-1.0,-100.00,SSE,154,3.0,5.0,55,-99.99,,,-99.99,,2013-03-25 03:12:00,
2013-03-24 21:53:00,8.0,-1.0,-100.00,ESE,117,4.0,5.0,67,-99.99,,,-99.99,,2013-03-25 03:53:00,
2013-03-24 22:02:00,8.0,-1.0,-100.00,ESE,117,4.0,5.0,67,-99.99,,,-99.99,,2013-03-25 04:02:00,
2013-03-24 22:12:00,8.0,-1.0,-100.00,ESE,117,4.0,5.0,67,-99.99,,,-99.99,,2013-03-25 04:12:00,
2013-03-24 22:52:00,0.0,-5.0,-100.00,ESE,120,2.0,4.0,78,-99.99,,,-99.99,,2013-03-25 04:52:00,
2013-03-24 23:02:00,0.0,-5.0,-100.00,ESE,120,2.0,4.0,78,-99.99,,,-99.99,,2013-03-25 05:02:00,
2013-03-24 23:12:00,0.0,-5.0,-100.00,ESE,120,2.0,4.0,78,-99.99,,,-99.99,,2013-03-25 05:12:00,
2013-03-24 23:52:00,-4.0,-8.0,-100.00,SE,124,3.0,3.0,83,-99.99,,,-99.99,,2013-03-25 05:52:00,